Regional Weather Roundup
Issued by NWS

Home | Current Version | Previous Version | Graphics & Text | Print | Product List | Glossary On
Versions: 1 2 3 4 5 6 7 8 9 10 11 12 13 14 15 16 17 18 19 20 21 22 23 24 25 26 27 28 29 30 31 32 33 34 35 36 37 38 39 40 41 42 43 44 45 46 47 48 49 50
000
ASUS44 KMEG 172010
RWRTN
TENNESSEE HOURLY STATE WEATHER ROUNDUP
NATIONAL WEATHER SERVICE MEMPHIS TN
200 PM CST WED DEC 17 2014

TNZ002-004-019-021-049-052-054-088>092-172100-
WEST TENNESSEE

CITY           SKY/WX    TMP DP  RH WIND       PRES   REMARKS
MEMPHIS INTL   CLOUDY    44  32  62 CALM      30.27F
NWS MEMPHIS      N/A     42 N/A N/A MISG        N/A
JACKSON        CLOUDY    40  30  67 N6        30.27F
DYERSBURG      CLOUDY    39  19  45 CALM      30.28F
UNION CITY     SUNNY     37  28  70 CALM      30.26F
PARIS          SUNNY     39  27  60 CALM      30.25F
HUNTINGDON     CLOUDY    38  27  65 CALM      30.26F
LEXINGTON      SUNNY     39  28  65 CALM      30.24F
SAVANNAH       SUNNY     45  30  57 NW6       30.25F
$$

TNZ008-025-027-028-033-062-065-066-172100-
NORTH MIDDLE TENNESSEE

CITY           SKY/WX    TMP DP  RH WIND       PRES   REMARKS
NASHVILLE      PTSUNNY   39  29  67 CALM      30.25F
CLARKSVILLE    SUNNY     40  27  59 NW3       30.26S
SMYRNA         CLOUDY    38  30  73 VRB3      30.27S
COOKEVILLE     CLOUDY    39  32  75 NE5       30.20S
CROSSVILLE     MOSUNNY   40  30  67 VRB5      30.17F
$$

TNZ061-075-076-078-094-096-097-172100-
SOUTH MIDDLE TENNESSEE

CITY           SKY/WX    TMP DP  RH WIND       PRES   REMARKS
FAYETTEVILLE   CLOUDY    39  30  70 MISG      30.21S
TULLAHOMA      CLOUDY    37  30  75 W5        30.22R WCI  34
WINCHESTER     CLOUDY    39  34  81 N3        30.22R
MCMINNVILLE    CLOUDY    39  32  75 CALM      30.22R
SHELBYVILLE    CLOUDY    39  34  81 NW6       30.24S WCI  35
$$

TNZ017-018-042-046-047-172100-
NORTHEAST TENNESSEE

CITY           SKY/WX    TMP DP  RH WIND       PRES   REMARKS
TRI CITIES     MOSUNNY   47  33  58 W10       30.12F
ELIZABETHTON   PTCLDY    46  34  61 W7        30.11F
$$

TNZ012-013-036-069-073-074-172100-
CENTRAL EAST TENNESSEE

CITY           SKY/WX    TMP DP  RH WIND       PRES   REMARKS
KNOXVILLE      PTSUNNY   45  37  73 CALM      30.18S
OAK RIDGE      PTSUNNY   49  34  56 VRB3      30.19S
GATLINBURG     CLOUDY    45  34  65 SW5       30.17S
MORRISTOWN     PTCLDY    43  34  70 NW5       30.17R
$$

TNZ083-085-099-172100-
SOUTHEAST TENNESSEE

CITY           SKY/WX    TMP DP  RH WIND       PRES   REMARKS
CHATTANOOGA    PTSUNNY   48  35  60 NE6       30.19F
$$

SKY/WX REPORTED AS FAIR MEANS FEW OR NO CLOUDS BELOW
12 THOUSAND FEET.



USA.gov is the U.S. government's official web portal to all federal, state and local government web resources and services.